Location: Eimen
(51.8766°N, 9.7806°E)
Time: 16:53:30
(UTC+00:00)

Cosmos 2333 - Pass Details

Date: 23 May 2024
Orbit: 828 x 866 km, 70.9° (Epoch: 23 June)

Event Time Altitude Azimuth Distance (km) Brightness Sun altitude
Rises 01:41:49 0° 329° (NNW) 3,423 7.7 -10.9°
Reaches altitude 10° 01:44:16 10° 329° (NNW) 2,489 7.0 -10.7°
Maximum altitude 01:50:01 88° 57° (ENE) 865 4.3 -10.2°
Drops below altitude 10° 01:55:47 10° 150° (SSE) 2,496 6.4 -9.7°
Sets 01:58:14 0° 151° (SSE) 3,432 7.1 -9.4°
